Time,TemperatureF,DewpointF,PressureIn,WindDirection,WindDirectionDegrees,WindSpeedMPH,WindSpeedGustMPH,Humidity,HourlyPrecipIn,Conditions,Clouds,dailyrainin,SoftwareType,DateUTC
2013-05-27 00:00:00,47.9,39.3,30.17,NNW,342,0.0,0.0,72,0.00,,CLR,0.00,VWS V12.08,2013-05-27 04:00:00,
2013-05-27 00:01:00,47.9,39.3,30.17,NNW,342,0.0,0.0,72,0.00,,CLR,0.00,VWS V12.08,2013-05-27 04:01:00,
2013-05-27 00:10:00,47.4,38.8,30.17,NNW,342,0.0,0.0,72,0.00,,CLR,0.00,VWS V12.08,2013-05-27 04:10:00,
2013-05-27 00:11:00,47.4,38.8,30.17,NNW,342,0.0,0.0,72,0.00,,CLR,0.00,VWS V12.08,2013-05-27 04:11:00,
2013-05-27 00:20:00,47.0,38.5,30.17,NNW,342,0.0,0.0,72,0.00,,CLR,0.00,VWS V12.08,2013-05-27 04:20:00,
2013-05-27 00:21:00,47.0,38.5,30.17,NNW,342,0.0,0.0,72,0.00,,CLR,0.00,VWS V12.08,2013-05-27 04:21:00,
2013-05-27 00:30:00,46.5,39.0,30.17,NNW,342,0.0,0.0,75,0.00,,CLR,0.00,VWS V12.08,2013-05-27 04:30:00,
2013-05-27 00:31:00,46.5,39.0,30.17,NNW,342,0.0,0.0,75,0.00,,CLR,0.00,VWS V12.08,2013-05-27 04:31:00,
2013-05-27 00:40:00,46.1,39.6,30.17,NNW,342,0.0,0.0,78,0.00,,CLR,0.00,VWS V12.08,2013-05-27 04:40:00,
2013-05-27 00:41:00,46.1,39.6,30.17,NNW,342,0.0,0.0,78,0.00,,CLR,0.00,VWS V12.08,2013-05-27 04:41:00,
2013-05-27 00:50:00,45.5,39.7,30.17,NNW,342,0.0,0.0,80,0.00,,CLR,0.00,VWS V12.08,2013-05-27 04:50:00,
2013-05-27 00:51:00,45.5,39.7,30.17,NNW,342,0.0,0.0,80,0.00,,CLR,0.00,VWS V12.08,2013-05-27 04:51:00,
2013-05-27 01:00:00,45.1,37.7,30.17,NNW,342,0.0,0.0,75,0.00,,CLR,0.00,VWS V12.08,2013-05-27 05:00:00,
2013-05-27 01:01:00,45.1,37.7,30.17,NNW,342,0.0,0.0,75,0.00,,CLR,0.00,VWS V12.08,2013-05-27 05:01:00,
2013-05-27 01:10:00,44.8,38.4,30.17,NNW,342,0.0,0.0,78,0.00,,CLR,0.00,VWS V12.08,2013-05-27 05:10:00,
2013-05-27 01:11:00,44.8,38.4,30.17,NNW,342,0.0,0.0,78,0.00,,CLR,0.00,VWS V12.08,2013-05-27 05:11:00,
2013-05-27 01:20:00,44.3,38.8,30.17,NNW,342,0.0,0.0,81,0.00,,CLR,0.00,VWS V12.08,2013-05-27 05:20:00,
2013-05-27 01:21:00,44.3,38.8,30.17,NNW,342,0.0,0.0,81,0.00,,CLR,0.00,VWS V12.08,2013-05-27 05:21:00,
2013-05-27 01:30:00,43.6,38.5,30.17,NNW,342,0.0,0.0,82,0.00,,CLR,0.00,VWS V12.08,2013-05-27 05:30:00,
2013-05-27 01:31:00,43.6,38.5,30.17,NNW,342,0.0,0.0,82,0.00,,CLR,0.00,VWS V12.08,2013-05-27 05:31:00,
2013-05-27 01:40:00,43.5,38.4,30.17,NNW,342,0.0,0.0,82,0.00,,CLR,0.00,VWS V12.08,2013-05-27 05:40:00,
2013-05-27 01:41:00,43.5,38.4,30.17,NNW,342,0.0,0.0,82,0.00,,CLR,0.00,VWS V12.08,2013-05-27 05:41:00,
2013-05-27 01:50:00,43.2,38.4,30.17,NNW,342,0.0,0.0,83,0.00,,CLR,0.00,VWS V12.08,2013-05-27 05:50:00,
2013-05-27 01:51:00,43.2,38.4,30.17,NNW,342,0.0,0.0,83,0.00,,CLR,0.00,VWS V12.08,2013-05-27 05:51:00,
2013-05-27 02:00:00,42.8,38.3,30.18,NNW,342,0.0,0.0,84,0.00,,CLR,0.00,VWS V12.08,2013-05-27 06:00:00,
2013-05-27 02:01:00,42.8,38.3,30.18,NNW,342,0.0,0.0,84,0.00,,CLR,0.00,VWS V12.08,2013-05-27 06:01:00,
2013-05-27 02:10:00,42.5,38.6,30.18,NNW,342,0.0,0.0,86,0.00,,CLR,0.00,VWS V12.08,2013-05-27 06:10:00,
2013-05-27 02:11:00,42.5,38.6,30.18,NNW,342,0.0,0.0,86,0.00,,CLR,0.00,VWS V12.08,2013-05-27 06:11:00,
2013-05-27 02:20:00,42.3,38.7,30.18,NNW,342,0.0,0.0,87,0.00,,CLR,0.00,VWS V12.08,2013-05-27 06:20:00,
2013-05-27 02:21:00,42.3,38.7,30.18,NNW,342,0.0,0.0,87,0.00,,CLR,0.00,VWS V12.08,2013-05-27 06:21:00,
2013-05-27 02:30:00,42.6,39.0,30.18,NNW,342,0.0,0.0,87,0.00,,CLR,0.00,VWS V12.08,2013-05-27 06:30:00,
2013-05-27 02:31:00,42.6,39.0,30.18,NNW,342,0.0,0.0,87,0.00,,CLR,0.00,VWS V12.08,2013-05-27 06:31:00,
2013-05-27 02:40:00,42.6,39.0,30.18,NNW,342,0.0,0.0,87,0.00,,CLR,0.00,VWS V12.08,2013-05-27 06:40:00,
2013-05-27 02:41:00,42.6,39.0,30.18,NNW,342,0.0,0.0,87,0.00,,CLR,0.00,VWS V12.08,2013-05-27 06:41:00,
2013-05-27 02:50:00,42.3,38.7,30.18,NNW,342,0.0,0.0,87,0.00,,CLR,0.00,VWS V12.08,2013-05-27 06:50:00,
2013-05-27 02:51:00,42.3,38.7,30.18,NNW,342,0.0,0.0,87,0.00,,CLR,0.00,VWS V12.08,2013-05-27 06:51:00,
2013-05-27 03:00:00,42.1,38.8,30.19,NNW,342,0.0,0.0,88,0.00,,CLR,0.00,VWS V12.08,2013-05-27 07:00:00,
2013-05-27 03:01:00,42.1,38.8,30.19,NNW,342,0.0,0.0,88,0.00,,CLR,0.00,VWS V12.08,2013-05-27 07:01:00,
2013-05-27 03:10:00,42.2,39.2,30.19,NNW,342,0.0,0.0,89,0.00,,CLR,0.00,VWS V12.08,2013-05-27 07:10:00,
2013-05-27 03:11:00,42.2,39.2,30.19,NNW,342,0.0,0.0,89,0.00,,CLR,0.00,VWS V12.08,2013-05-27 07:11:00,
2013-05-27 03:20:00,42.3,39.6,30.19,NNW,342,0.0,0.0,90,0.00,,CLR,0.00,VWS V12.08,2013-05-27 07:20:00,
2013-05-27 03:21:00,42.3,39.6,30.19,NNW,342,0.0,0.0,90,0.00,,CLR,0.00,VWS V12.08,2013-05-27 07:21:00,
2013-05-27 03:30:00,42.2,39.5,30.19,NNW,342,0.0,0.0,90,0.00,,CLR,0.00,VWS V12.08,2013-05-27 07:30:00,
2013-05-27 03:31:00,42.2,39.5,30.19,NNW,342,0.0,0.0,90,0.00,,CLR,0.00,VWS V12.08,2013-05-27 07:31:00,
2013-05-27 03:40:00,41.9,38.9,30.19,NNW,342,0.0,0.0,89,0.00,,CLR,0.00,VWS V12.08,2013-05-27 07:40:00,
2013-05-27 03:41:00,41.9,38.9,30.19,NNW,342,0.0,0.0,89,0.00,,CLR,0.00,VWS V12.08,2013-05-27 07:41:00,
2013-05-27 03:50:00,41.8,38.8,30.19,NNW,342,0.0,0.0,89,0.00,,CLR,0.00,VWS V12.08,2013-05-27 07:50:00,
2013-05-27 03:51:00,41.8,38.8,30.19,NNW,342,0.0,0.0,89,0.00,,CLR,0.00,VWS V12.08,2013-05-27 07:51:00,
2013-05-27 04:00:00,41.3,38.6,30.18,NNW,342,0.0,0.0,90,0.00,,CLR,0.00,VWS V12.08,2013-05-27 08:00:00,
2013-05-27 04:01:00,41.3,38.6,30.18,NNW,342,0.0,0.0,90,0.00,,CLR,0.00,VWS V12.08,2013-05-27 08:01:00,
2013-05-27 04:10:00,41.1,38.4,30.18,NNW,342,0.0,0.0,90,0.00,,CLR,0.00,VWS V12.08,2013-05-27 08:10:00,
2013-05-27 04:11:00,41.1,38.4,30.18,NNW,342,0.0,0.0,90,0.00,,CLR,0.00,VWS V12.08,2013-05-27 08:11:00,
2013-05-27 04:20:00,40.9,38.5,30.18,NNW,342,0.0,0.0,91,0.00,,CLR,0.00,VWS V12.08,2013-05-27 08:20:00,
2013-05-27 04:21:00,40.9,38.5,30.18,NNW,342,0.0,0.0,91,0.00,,CLR,0.00,VWS V12.08,2013-05-27 08:21:00,
2013-05-27 04:30:00,40.9,38.2,30.19,NNW,342,0.0,0.0,90,0.00,,CLR,0.00,VWS V12.08,2013-05-27 08:30:00,
2013-05-27 04:31:00,40.9,38.2,30.19,NNW,342,0.0,0.0,90,0.00,,CLR,0.00,VWS V12.08,2013-05-27 08:31:00,
2013-05-27 04:40:00,40.9,38.5,30.19,NNW,342,0.0,0.0,91,0.00,,CLR,0.00,VWS V12.08,2013-05-27 08:40:00,
2013-05-27 04:41:00,40.9,38.5,30.19,NNW,342,0.0,0.0,91,0.00,,CLR,0.00,VWS V12.08,2013-05-27 08:41:00,
2013-05-27 04:50:00,40.9,38.5,30.19,NNW,342,0.0,0.0,91,0.00,,CLR,0.00,VWS V12.08,2013-05-27 08:50:00,
2013-05-27 04:51:00,40.9,38.5,30.19,NNW,342,0.0,0.0,91,0.00,,CLR,0.00,VWS V12.08,2013-05-27 08:51:00,
2013-05-27 05:00:00,40.8,38.7,30.19,NNW,342,0.0,0.0,92,0.00,,CLR,0.00,VWS V12.08,2013-05-27 09:00:00,
2013-05-27 05:01:00,40.8,38.7,30.19,NNW,342,0.0,0.0,92,0.00,,CLR,0.00,VWS V12.08,2013-05-27 09:01:00,
2013-05-27 05:10:00,40.5,38.4,30.19,NNW,342,0.0,0.0,92,0.00,,CLR,0.00,VWS V12.08,2013-05-27 09:10:00,
2013-05-27 05:11:00,40.5,38.4,30.19,NNW,342,0.0,0.0,92,0.00,,CLR,0.00,VWS V12.08,2013-05-27 09:11:00,
2013-05-27 05:20:00,40.3,38.2,30.20,NNW,342,0.0,0.0,92,0.00,,CLR,0.00,VWS V12.08,2013-05-27 09:20:00,
2013-05-27 05:21:00,40.3,38.2,30.20,NNW,342,0.0,0.0,92,0.00,,CLR,0.00,VWS V12.08,2013-05-27 09:21:00,
2013-05-27 05:30:00,40.2,37.8,30.20,NNW,342,0.0,0.0,91,0.00,,CLR,0.00,VWS V12.08,2013-05-27 09:30:00,
2013-05-27 05:31:00,40.2,37.8,30.20,NNW,342,0.0,0.0,91,0.00,,CLR,0.00,VWS V12.08,2013-05-27 09:31:00,
2013-05-27 05:40:00,40.2,38.1,30.20,NNW,342,0.0,0.0,92,0.00,,CLR,0.00,VWS V12.08,2013-05-27 09:40:00,
2013-05-27 05:41:00,40.2,38.1,30.20,NNW,342,0.0,0.0,92,0.00,,CLR,0.00,VWS V12.08,2013-05-27 09:41:00,
2013-05-27 05:50:00,40.3,38.2,30.20,NNW,342,0.0,0.0,92,0.00,,CLR,0.00,VWS V12.08,2013-05-27 09:50:00,
2013-05-27 05:51:00,40.3,38.2,30.20,NNW,342,0.0,0.0,92,0.00,,CLR,0.00,VWS V12.08,2013-05-27 09:51:00,
2013-05-27 06:00:00,40.5,38.6,30.20,NNW,342,0.0,0.0,93,0.00,,CLR,0.00,VWS V12.08,2013-05-27 10:00:00,
2013-05-27 06:01:00,40.5,38.6,30.20,NNW,342,0.0,0.0,93,0.00,,CLR,0.00,VWS V12.08,2013-05-27 10:01:00,
2013-05-27 06:10:00,40.6,38.7,30.20,NNW,342,0.0,0.0,93,0.00,,CLR,0.00,VWS V12.08,2013-05-27 10:10:00,
2013-05-27 06:11:00,40.6,38.7,30.20,NNW,342,0.0,0.0,93,0.00,,CLR,0.00,VWS V12.08,2013-05-27 10:11:00,
2013-05-27 06:20:00,40.9,39.0,30.21,NNW,342,0.0,0.0,93,0.00,,CLR,0.00,VWS V12.08,2013-05-27 10:20:00,
2013-05-27 06:21:00,40.9,39.0,30.21,NNW,342,0.0,0.0,93,0.00,,CLR,0.00,VWS V12.08,2013-05-27 10:21:00,
2013-05-27 06:30:00,41.3,39.2,30.21,NNW,342,0.0,0.0,92,0.00,,CLR,0.00,VWS V12.08,2013-05-27 10:30:00,
2013-05-27 06:31:00,41.3,39.2,30.21,NNW,342,0.0,0.0,92,0.00,,CLR,0.00,VWS V12.08,2013-05-27 10:31:00,
2013-05-27 06:40:00,41.9,39.5,30.21,NNW,342,0.0,0.0,91,0.00,,CLR,0.00,VWS V12.08,2013-05-27 10:40:00,
2013-05-27 06:41:00,41.9,39.5,30.21,NNW,342,0.0,0.0,91,0.00,,CLR,0.00,VWS V12.08,2013-05-27 10:41:00,
2013-05-27 06:50:00,42.5,39.8,30.21,WNW,294,0.0,0.0,90,0.00,,CLR,0.00,VWS V12.08,2013-05-27 10:50:00,
2013-05-27 06:51:00,42.5,39.8,30.21,WNW,294,0.0,0.0,90,0.00,,CLR,0.00,VWS V12.08,2013-05-27 10:51:00,
2013-05-27 07:00:00,43.3,40.3,30.21,WNW,294,1.0,1.0,89,0.00,,CLR,0.00,VWS V12.08,2013-05-27 11:00:00,
2013-05-27 07:01:00,43.3,40.3,30.21,WNW,294,1.0,1.0,89,0.00,,CLR,0.00,VWS V12.08,2013-05-27 11:01:00,
2013-05-27 07:10:00,44.2,40.6,30.21,WNW,294,0.0,1.0,87,0.00,,CLR,0.00,VWS V12.08,2013-05-27 11:10:00,
2013-05-27 07:11:00,44.2,40.6,30.21,WNW,294,0.0,1.0,87,0.00,,CLR,0.00,VWS V12.08,2013-05-27 11:11:00,
2013-05-27 07:20:00,45.4,40.5,30.21,WNW,294,0.0,0.0,83,0.00,,CLR,0.00,VWS V12.08,2013-05-27 11:20:00,
2013-05-27 07:21:00,45.4,40.5,30.21,WNW,294,0.0,0.0,83,0.00,,CLR,0.00,VWS V12.08,2013-05-27 11:21:00,
2013-05-27 07:30:00,46.5,40.3,30.22,WNW,294,0.0,0.0,79,0.00,,CLR,0.00,VWS V12.08,2013-05-27 11:30:00,
2013-05-27 07:31:00,46.5,40.3,30.22,WNW,294,0.0,0.0,79,0.00,,CLR,0.00,VWS V12.08,2013-05-27 11:31:00,
2013-05-27 07:40:00,47.6,41.4,30.22,WNW,294,0.0,0.0,79,0.00,,CLR,0.00,VWS V12.08,2013-05-27 11:40:00,
2013-05-27 07:41:00,47.6,41.4,30.22,WNW,294,0.0,0.0,79,0.00,,CLR,0.00,VWS V12.08,2013-05-27 11:41:00,
2013-05-27 07:50:00,48.8,42.6,30.22,WNW,294,0.0,0.0,79,0.00,,CLR,0.00,VWS V12.08,2013-05-27 11:50:00,
2013-05-27 07:51:00,48.8,42.6,30.22,WNW,294,0.0,0.0,79,0.00,,CLR,0.00,VWS V12.08,2013-05-27 11:51:00,
2013-05-27 08:00:00,50.1,43.8,30.22,WNW,294,0.0,1.0,79,0.00,,CLR,0.00,VWS V12.08,2013-05-27 12:00:00,
2013-05-27 08:01:00,50.1,43.8,30.22,WNW,294,0.0,1.0,79,0.00,,CLR,0.00,VWS V12.08,2013-05-27 12:01:00,
2013-05-27 08:10:00,51.6,42.9,30.22,WNW,294,0.0,1.0,72,0.00,,CLR,0.00,VWS V12.08,2013-05-27 12:10:00,
2013-05-27 08:11:00,51.6,42.9,30.22,WNW,294,0.0,1.0,72,0.00,,CLR,0.00,VWS V12.08,2013-05-27 12:11:00,
2013-05-27 08:20:00,53.1,43.6,30.22,WNW,294,0.0,1.0,70,0.00,,CLR,0.00,VWS V12.08,2013-05-27 12:20:00,
2013-05-27 08:21:00,53.1,43.6,30.22,WNW,294,0.0,1.0,70,0.00,,CLR,0.00,VWS V12.08,2013-05-27 12:21:00,
2013-05-27 08:30:00,54.5,43.8,30.22,WNW,295,0.0,1.0,67,0.00,,CLR,0.00,VWS V12.08,2013-05-27 12:30:00,
2013-05-27 08:31:00,54.5,43.8,30.22,WNW,295,0.0,1.0,67,0.00,,CLR,0.00,VWS V12.08,2013-05-27 12:31:00,
2013-05-27 08:40:00,55.9,41.3,30.22,WNW,295,0.0,1.0,58,0.00,,CLR,0.00,VWS V12.08,2013-05-27 12:40:00,
2013-05-27 08:41:00,55.9,41.3,30.22,WNW,295,0.0,1.0,58,0.00,,CLR,0.00,VWS V12.08,2013-05-27 12:41:00,
2013-05-27 08:50:00,57.2,43.0,30.22,NW,313,1.0,1.0,59,0.00,,CLR,0.00,VWS V12.08,2013-05-27 12:50:00,
2013-05-27 08:51:00,57.2,43.0,30.22,NW,313,1.0,1.0,59,0.00,,CLR,0.00,VWS V12.08,2013-05-27 12:51:00,
2013-05-27 09:00:00,58.4,39.8,30.22,NNW,328,0.0,5.0,50,0.00,,CLR,0.00,VWS V12.08,2013-05-27 13:00:00,
2013-05-27 09:01:00,58.4,39.8,30.22,NNW,328,0.0,5.0,50,0.00,,CLR,0.00,VWS V12.08,2013-05-27 13:01:00,
2013-05-27 09:10:00,59.5,38.7,30.22,North,5,0.0,5.0,46,0.00,,CLR,0.00,VWS V12.08,2013-05-27 13:10:00,
2013-05-27 09:11:00,59.5,38.7,30.22,North,5,0.0,5.0,46,0.00,,CLR,0.00,VWS V12.08,2013-05-27 13:11:00,
2013-05-27 09:20:00,60.1,38.1,30.21,NNW,348,1.0,4.0,44,0.00,,CLR,0.00,VWS V12.08,2013-05-27 13:20:00,
2013-05-27 09:21:00,60.1,38.1,30.21,NNW,348,1.0,4.0,44,0.00,,CLR,0.00,VWS V12.08,2013-05-27 13:21:00,
2013-05-27 09:30:00,60.7,39.3,30.21,WSW,257,0.0,4.0,45,0.00,,CLR,0.00,VWS V12.08,2013-05-27 13:30:00,
2013-05-27 09:31:00,60.7,39.3,30.21,WSW,257,0.0,4.0,45,0.00,,CLR,0.00,VWS V12.08,2013-05-27 13:31:00,
2013-05-27 09:40:00,61.3,39.8,30.21,North,5,1.0,5.0,45,0.00,,CLR,0.00,VWS V12.08,2013-05-27 13:40:00,
2013-05-27 09:41:00,61.3,39.8,30.21,North,5,1.0,5.0,45,0.00,,CLR,0.00,VWS V12.08,2013-05-27 13:41:00,
2013-05-27 09:50:00,61.6,37.7,30.21,North,360,1.0,7.0,41,0.00,,CLR,0.00,VWS V12.08,2013-05-27 13:50:00,
2013-05-27 09:51:00,61.6,37.7,30.21,North,360,1.0,7.0,41,0.00,,CLR,0.00,VWS V12.08,2013-05-27 13:51:00,
2013-05-27 10:00:00,62.1,40.0,30.21,NW,319,1.0,2.0,44,0.00,,CLR,0.00,VWS V12.08,2013-05-27 14:00:00,
2013-05-27 10:01:00,62.1,40.0,30.21,NW,319,1.0,2.0,44,0.00,,CLR,0.00,VWS V12.08,2013-05-27 14:01:00,
2013-05-27 10:10:00,62.7,40.5,30.21,NE,39,1.0,6.0,44,0.00,,CLR,0.00,VWS V12.08,2013-05-27 14:10:00,
2013-05-27 10:11:00,62.7,40.5,30.21,NE,39,1.0,6.0,44,0.00,,CLR,0.00,VWS V12.08,2013-05-27 14:11:00,
2013-05-27 10:20:00,63.2,40.3,30.21,NW,322,0.0,5.0,43,0.00,,CLR,0.00,VWS V12.08,2013-05-27 14:20:00,
2013-05-27 10:21:00,63.2,40.3,30.21,NW,322,0.0,5.0,43,0.00,,CLR,0.00,VWS V12.08,2013-05-27 14:21:00,
2013-05-27 10:30:00,63.9,39.8,30.20,West,273,1.0,6.0,41,0.00,,CLR,0.00,VWS V12.08,2013-05-27 14:30:00,
2013-05-27 10:31:00,63.9,39.8,30.20,West,273,1.0,6.0,41,0.00,,CLR,0.00,VWS V12.08,2013-05-27 14:31:00,
2013-05-27 10:40:00,64.5,42.7,30.20,NNW,346,0.0,4.0,45,0.00,,CLR,0.00,VWS V12.08,2013-05-27 14:40:00,
2013-05-27 10:41:00,64.5,42.7,30.20,NNW,346,0.0,4.0,45,0.00,,CLR,0.00,VWS V12.08,2013-05-27 14:41:00,
2013-05-27 10:50:00,64.7,37.2,30.20,NNW,327,0.0,9.0,36,0.00,,CLR,0.00,VWS V12.08,2013-05-27 14:50:00,
2013-05-27 10:51:00,64.7,37.2,30.20,NNW,327,0.0,9.0,36,0.00,,CLR,0.00,VWS V12.08,2013-05-27 14:51:00,
2013-05-27 11:00:00,65.2,37.6,30.20,NNE,13,0.0,6.0,36,0.00,,CLR,0.00,VWS V12.08,2013-05-27 15:00:00,
2013-05-27 11:01:00,65.2,37.6,30.20,NNE,13,0.0,6.0,36,0.00,,CLR,0.00,VWS V12.08,2013-05-27 15:01:00,
2013-05-27 11:10:00,65.8,36.7,30.20,NNW,346,1.0,9.0,34,0.00,,CLR,0.00,VWS V12.08,2013-05-27 15:10:00,
2013-05-27 11:11:00,65.8,36.7,30.20,NNW,346,1.0,9.0,34,0.00,,CLR,0.00,VWS V12.08,2013-05-27 15:11:00,
2013-05-27 11:20:00,66.3,41.9,30.20,SW,230,2.0,5.0,41,0.00,,CLR,0.00,VWS V12.08,2013-05-27 15:20:00,
2013-05-27 11:21:00,66.3,41.9,30.20,SW,230,2.0,5.0,41,0.00,,CLR,0.00,VWS V12.08,2013-05-27 15:21:00,
2013-05-27 11:30:00,67.1,37.8,30.20,SW,233,2.0,6.0,34,0.00,,CLR,0.00,VWS V12.08,2013-05-27 15:30:00,
2013-05-27 11:31:00,67.1,37.8,30.20,SW,233,2.0,6.0,34,0.00,,CLR,0.00,VWS V12.08,2013-05-27 15:31:00,
2013-05-27 11:40:00,67.6,35.9,30.20,WSW,254,2.0,4.0,31,0.00,,CLR,0.00,VWS V12.08,2013-05-27 15:40:00,
2013-05-27 11:41:00,67.6,35.9,30.20,WSW,254,2.0,4.0,31,0.00,,CLR,0.00,VWS V12.08,2013-05-27 15:41:00,
2013-05-27 11:50:00,68.8,36.1,30.19,NE,42,4.0,8.0,30,0.00,,CLR,0.00,VWS V12.08,2013-05-27 15:50:00,
2013-05-27 11:51:00,68.8,36.1,30.19,NE,42,4.0,8.0,30,0.00,,CLR,0.00,VWS V12.08,2013-05-27 15:51:00,
2013-05-27 12:00:00,70.3,35.7,30.19,NNE,14,0.0,5.0,28,0.00,,CLR,0.00,VWS V12.08,2013-05-27 16:00:00,
2013-05-27 12:01:00,70.3,35.7,30.19,NNE,14,0.0,5.0,28,0.00,,CLR,0.00,VWS V12.08,2013-05-27 16:01:00,
2013-05-27 12:10:00,72.0,37.1,30.19,ENE,60,0.0,4.0,28,0.00,,CLR,0.00,VWS V12.08,2013-05-27 16:10:00,
2013-05-27 12:11:00,72.0,37.1,30.19,ENE,60,0.0,4.0,28,0.00,,CLR,0.00,VWS V12.08,2013-05-27 16:11:00,
2013-05-27 12:20:00,72.5,34.7,30.19,NNW,333,0.0,6.0,25,0.00,,CLR,0.00,VWS V12.08,2013-05-27 16:20:00,
2013-05-27 12:21:00,72.5,34.7,30.19,NNW,333,0.0,6.0,25,0.00,,CLR,0.00,VWS V12.08,2013-05-27 16:21:00,
2013-05-27 12:30:00,73.2,37.2,30.18,NNW,327,1.0,6.0,27,0.00,,CLR,0.00,VWS V12.08,2013-05-27 16:30:00,
2013-05-27 12:31:00,73.2,37.2,30.18,NNW,327,1.0,6.0,27,0.00,,CLR,0.00,VWS V12.08,2013-05-27 16:31:00,
2013-05-27 12:40:00,73.7,37.7,30.18,ESE,106,0.0,6.0,27,0.00,,CLR,0.00,VWS V12.08,2013-05-27 16:40:00,
2013-05-27 12:41:00,73.7,37.7,30.18,ESE,106,0.0,6.0,27,0.00,,CLR,0.00,VWS V12.08,2013-05-27 16:41:00,
2013-05-27 12:50:00,73.9,38.8,30.17,SW,232,1.0,7.0,28,0.00,,CLR,0.00,VWS V12.08,2013-05-27 16:50:00,
2013-05-27 12:51:00,73.9,38.8,30.17,SW,232,1.0,7.0,28,0.00,,CLR,0.00,VWS V12.08,2013-05-27 16:51:00,
2013-05-27 13:00:00,73.7,38.6,30.16,SSW,202,1.0,4.0,28,0.00,,CLR,0.00,VWS V12.08,2013-05-27 17:00:00,
2013-05-27 13:01:00,73.7,38.6,30.16,SSW,202,1.0,4.0,28,0.00,,CLR,0.00,VWS V12.08,2013-05-27 17:01:00,
2013-05-27 13:10:00,73.0,38.9,30.16,West,276,0.0,3.0,29,0.00,,CLR,0.00,VWS V12.08,2013-05-27 17:10:00,
2013-05-27 13:11:00,73.0,38.9,30.16,West,276,0.0,3.0,29,0.00,,CLR,0.00,VWS V12.08,2013-05-27 17:11:00,
2013-05-27 13:20:00,74.2,44.8,30.16,WSW,254,1.0,5.0,35,0.00,,CLR,0.00,VWS V12.08,2013-05-27 17:20:00,
2013-05-27 13:21:00,74.2,44.8,30.16,WSW,254,1.0,5.0,35,0.00,,CLR,0.00,VWS V12.08,2013-05-27 17:21:00,
2013-05-27 13:30:00,75.1,38.9,30.15,SW,218,3.0,4.0,27,0.00,,CLR,0.00,VWS V12.08,2013-05-27 17:30:00,
2013-05-27 13:31:00,75.1,38.9,30.15,SW,218,3.0,4.0,27,0.00,,CLR,0.00,VWS V12.08,2013-05-27 17:31:00,
2013-05-27 13:40:00,74.9,37.7,30.15,SW,221,0.0,9.0,26,0.00,,CLR,0.00,VWS V12.08,2013-05-27 17:40:00,
2013-05-27 13:41:00,74.9,37.7,30.15,SW,221,0.0,9.0,26,0.00,,CLR,0.00,VWS V12.08,2013-05-27 17:41:00,
2013-05-27 13:50:00,74.4,37.3,30.14,WNW,296,1.0,7.0,26,0.00,,CLR,0.00,VWS V12.08,2013-05-27 17:50:00,
2013-05-27 13:51:00,74.4,37.3,30.14,WNW,296,1.0,7.0,26,0.00,,CLR,0.00,VWS V12.08,2013-05-27 17:51:00,
2013-05-27 14:00:00,74.6,39.4,30.14,NW,309,0.0,6.0,28,0.00,,CLR,0.00,VWS V12.08,2013-05-27 18:00:00,
2013-05-27 14:01:00,74.6,39.4,30.14,NW,309,0.0,6.0,28,0.00,,CLR,0.00,VWS V12.08,2013-05-27 18:01:00,
2013-05-27 14:10:00,74.9,37.7,30.14,East,96,3.0,5.0,26,0.00,,CLR,0.00,VWS V12.08,2013-05-27 18:10:00,
2013-05-27 14:11:00,74.9,37.7,30.14,East,96,3.0,5.0,26,0.00,,CLR,0.00,VWS V12.08,2013-05-27 18:11:00,
2013-05-27 14:20:00,75.4,39.1,30.13,SSW,194,0.0,5.0,27,0.00,,CLR,0.00,VWS V12.08,2013-05-27 18:20:00,
2013-05-27 14:21:00,75.4,39.1,30.13,SSW,194,0.0,5.0,27,0.00,,CLR,0.00,VWS V12.08,2013-05-27 18:21:00,
2013-05-27 14:30:00,76.5,41.0,30.12,NNE,28,0.0,6.0,28,0.00,,CLR,0.00,VWS V12.08,2013-05-27 18:30:00,
2013-05-27 14:31:00,76.5,41.0,30.12,NNE,28,0.0,6.0,28,0.00,,CLR,0.00,VWS V12.08,2013-05-27 18:31:00,
2013-05-27 14:40:00,76.1,42.5,30.12,WSW,251,0.0,9.0,30,0.00,,CLR,0.00,VWS V12.08,2013-05-27 18:40:00,
2013-05-27 14:41:00,76.1,42.5,30.12,WSW,251,0.0,9.0,30,0.00,,CLR,0.00,VWS V12.08,2013-05-27 18:41:00,
2013-05-27 14:50:00,76.5,43.7,30.12,South,170,2.0,10.0,31,0.00,,CLR,0.00,VWS V12.08,2013-05-27 18:50:00,
2013-05-27 14:51:00,76.5,43.7,30.12,South,170,2.0,10.0,31,0.00,,CLR,0.00,VWS V12.08,2013-05-27 18:51:00,
2013-05-27 15:00:00,77.2,41.6,30.12,WSW,252,0.0,5.0,28,0.00,,CLR,0.00,VWS V12.08,2013-05-27 19:00:00,
2013-05-27 15:01:00,77.2,41.6,30.12,WSW,252,0.0,5.0,28,0.00,,CLR,0.00,VWS V12.08,2013-05-27 19:01:00,
2013-05-27 15:10:00,76.8,41.3,30.12,West,271,1.0,5.0,28,0.00,,CLR,0.00,VWS V12.08,2013-05-27 19:10:00,
2013-05-27 15:11:00,76.8,41.3,30.12,West,271,1.0,5.0,28,0.00,,CLR,0.00,VWS V12.08,2013-05-27 19:11:00,
2013-05-27 15:20:00,77.2,41.6,30.12,SW,223,0.0,11.0,28,0.00,,CLR,0.00,VWS V12.08,2013-05-27 19:20:00,
2013-05-27 15:21:00,77.2,41.6,30.12,SW,223,0.0,11.0,28,0.00,,CLR,0.00,VWS V12.08,2013-05-27 19:21:00,
2013-05-27 15:30:00,76.8,43.9,30.11,NNW,339,0.0,6.0,31,0.00,,CLR,0.00,VWS V12.08,2013-05-27 19:30:00,
2013-05-27 15:31:00,76.8,43.9,30.11,NNW,339,0.0,6.0,31,0.00,,CLR,0.00,VWS V12.08,2013-05-27 19:31:00,
2013-05-27 15:40:00,76.8,40.3,30.11,North,355,9.0,9.0,27,0.00,,CLR,0.00,VWS V12.08,2013-05-27 19:40:00,
2013-05-27 15:41:00,76.8,40.3,30.11,North,355,9.0,9.0,27,0.00,,CLR,0.00,VWS V12.08,2013-05-27 19:41:00,
2013-05-27 15:50:00,76.3,40.8,30.11,South,187,0.0,8.0,28,0.00,,CLR,0.00,VWS V12.08,2013-05-27 19:50:00,
2013-05-27 15:51:00,76.3,40.8,30.11,South,187,0.0,8.0,28,0.00,,CLR,0.00,VWS V12.08,2013-05-27 19:51:00,
2013-05-27 16:00:00,76.0,39.6,30.11,SW,232,1.0,5.0,27,0.00,,CLR,0.00,VWS V12.08,2013-05-27 20:00:00,
2013-05-27 16:01:00,76.0,39.6,30.11,SW,232,1.0,5.0,27,0.00,,CLR,0.00,VWS V12.08,2013-05-27 20:01:00,
2013-05-27 16:10:00,76.0,41.5,30.11,East,87,0.0,5.0,29,0.00,,CLR,0.00,VWS V12.08,2013-05-27 20:10:00,
2013-05-27 16:11:00,76.0,41.5,30.11,East,87,0.0,5.0,29,0.00,,CLR,0.00,VWS V12.08,2013-05-27 20:11:00,
2013-05-27 16:20:00,75.4,41.8,30.11,SW,221,0.0,3.0,30,0.00,,CLR,0.00,VWS V12.08,2013-05-27 20:20:00,
2013-05-27 16:21:00,75.4,41.8,30.11,SW,221,0.0,3.0,30,0.00,,CLR,0.00,VWS V12.08,2013-05-27 20:21:00,
2013-05-27 16:30:00,75.4,40.1,30.10,ENE,74,0.0,4.0,28,0.00,,CLR,0.00,VWS V12.08,2013-05-27 20:30:00,
2013-05-27 16:31:00,75.4,40.1,30.10,ENE,74,0.0,4.0,28,0.00,,CLR,0.00,VWS V12.08,2013-05-27 20:31:00,
2013-05-27 16:40:00,75.1,37.9,30.10,West,265,0.0,10.0,26,0.00,,CLR,0.00,VWS V12.08,2013-05-27 20:40:00,
2013-05-27 16:41:00,75.1,37.9,30.10,West,265,0.0,10.0,26,0.00,,CLR,0.00,VWS V12.08,2013-05-27 20:41:00,
2013-05-27 16:50:00,74.6,44.4,30.09,NW,323,0.0,3.0,34,0.00,,CLR,0.00,VWS V12.08,2013-05-27 20:50:00,
2013-05-27 16:51:00,74.6,44.4,30.09,NW,323,0.0,3.0,34,0.00,,CLR,0.00,VWS V12.08,2013-05-27 20:51:00,
2013-05-27 17:00:00,74.2,43.3,30.09,NNW,345,0.0,5.0,33,0.00,,CLR,0.00,VWS V12.08,2013-05-27 21:00:00,
2013-05-27 17:01:00,74.2,43.3,30.09,NNW,345,0.0,5.0,33,0.00,,CLR,0.00,VWS V12.08,2013-05-27 21:01:00,
2013-05-27 17:10:00,74.4,45.0,30.09,WSW,257,1.0,2.0,35,0.00,,CLR,0.00,VWS V12.08,2013-05-27 21:10:00,
2013-05-27 17:11:00,74.4,45.0,30.09,WSW,257,1.0,2.0,35,0.00,,CLR,0.00,VWS V12.08,2013-05-27 21:11:00,
2013-05-27 17:20:00,74.0,43.1,30.09,ENE,77,0.0,4.0,33,0.00,,CLR,0.00,VWS V12.08,2013-05-27 21:20:00,
2013-05-27 17:21:00,74.0,43.1,30.09,ENE,77,0.0,4.0,33,0.00,,CLR,0.00,VWS V12.08,2013-05-27 21:21:00,
2013-05-27 17:30:00,73.5,42.7,30.10,SSW,213,1.0,5.0,33,0.00,,CLR,0.00,VWS V12.08,2013-05-27 21:30:00,
2013-05-27 17:31:00,73.5,42.7,30.10,SSW,213,1.0,5.0,33,0.00,,CLR,0.00,VWS V12.08,2013-05-27 21:31:00,
2013-05-27 17:40:00,72.5,41.8,30.10,NNE,13,0.0,5.0,33,0.00,,CLR,0.00,VWS V12.08,2013-05-27 21:40:00,
2013-05-27 17:41:00,72.5,41.8,30.10,NNE,13,0.0,5.0,33,0.00,,CLR,0.00,VWS V12.08,2013-05-27 21:41:00,
2013-05-27 17:50:00,71.6,44.7,30.10,West,273,0.0,3.0,38,0.00,,CLR,0.00,VWS V12.08,2013-05-27 21:50:00,
2013-05-27 17:51:00,71.6,44.7,30.10,West,273,0.0,3.0,38,0.00,,CLR,0.00,VWS V12.08,2013-05-27 21:51:00,
2013-05-27 18:00:00,71.3,42.3,30.10,SW,219,0.0,4.0,35,0.00,,CLR,0.00,VWS V12.08,2013-05-27 22:00:00,
2013-05-27 18:01:00,71.3,42.3,30.10,SW,219,0.0,4.0,35,0.00,,CLR,0.00,VWS V12.08,2013-05-27 22:01:00,
2013-05-27 18:10:00,70.6,46.4,30.10,WNW,284,0.0,4.0,42,0.00,,CLR,0.00,VWS V12.08,2013-05-27 22:10:00,
2013-05-27 18:11:00,70.6,46.4,30.10,WNW,284,0.0,4.0,42,0.00,,CLR,0.00,VWS V12.08,2013-05-27 22:11:00,
2013-05-27 18:20:00,69.9,42.5,30.09,ENE,60,0.0,3.0,37,0.00,,CLR,0.00,VWS V12.08,2013-05-27 22:20:00,
2013-05-27 18:21:00,69.9,42.5,30.09,ENE,60,0.0,3.0,37,0.00,,CLR,0.00,VWS V12.08,2013-05-27 22:21:00,
2013-05-27 18:30:00,69.4,46.6,30.09,NE,56,0.0,3.0,44,0.00,,CLR,0.00,VWS V12.08,2013-05-27 22:30:00,
2013-05-27 18:31:00,69.4,46.6,30.09,NE,56,0.0,3.0,44,0.00,,CLR,0.00,VWS V12.08,2013-05-27 22:31:00,
2013-05-27 18:40:00,69.1,46.3,30.09,NW,319,0.0,3.0,44,0.00,,CLR,0.00,VWS V12.08,2013-05-27 22:40:00,
2013-05-27 18:41:00,69.1,46.3,30.09,NW,319,0.0,3.0,44,0.00,,CLR,0.00,VWS V12.08,2013-05-27 22:41:00,
2013-05-27 18:50:00,68.4,47.4,30.09,NW,314,1.0,2.0,47,0.00,,CLR,0.00,VWS V12.08,2013-05-27 22:50:00,
2013-05-27 18:51:00,68.4,47.4,30.09,NW,314,1.0,2.0,47,0.00,,CLR,0.00,VWS V12.08,2013-05-27 22:51:00,
2013-05-27 19:00:00,67.6,47.8,30.09,NW,314,0.0,1.0,49,0.00,,CLR,0.00,VWS V12.08,2013-05-27 23:00:00,
2013-05-27 19:01:00,67.6,47.8,30.09,NW,314,0.0,1.0,49,0.00,,CLR,0.00,VWS V12.08,2013-05-27 23:01:00,
2013-05-27 19:10:00,67.3,49.6,30.09,NW,313,0.0,1.0,53,0.00,,CLR,0.00,VWS V12.08,2013-05-27 23:10:00,
2013-05-27 19:11:00,67.3,49.6,30.09,NW,313,0.0,1.0,53,0.00,,CLR,0.00,VWS V12.08,2013-05-27 23:11:00,
2013-05-27 19:20:00,66.4,49.3,30.09,NW,313,0.0,0.0,54,0.00,,CLR,0.00,VWS V12.08,2013-05-27 23:20:00,
2013-05-27 19:21:00,66.4,49.3,30.09,NW,313,0.0,0.0,54,0.00,,CLR,0.00,VWS V12.08,2013-05-27 23:21:00,
2013-05-27 19:30:00,65.3,49.2,30.09,NW,313,0.0,0.0,56,0.00,,CLR,0.00,VWS V12.08,2013-05-27 23:30:00,
2013-05-27 19:31:00,65.3,49.2,30.09,NW,313,0.0,0.0,56,0.00,,CLR,0.00,VWS V12.08,2013-05-27 23:31:00,
2013-05-27 19:40:00,64.3,49.7,30.09,NW,313,0.0,0.0,59,0.00,,CLR,0.00,VWS V12.08,2013-05-27 23:40:00,
2013-05-27 19:41:00,64.3,49.7,30.09,NW,313,0.0,0.0,59,0.00,,CLR,0.00,VWS V12.08,2013-05-27 23:41:00,
2013-05-27 19:50:00,63.1,47.2,30.09,NW,313,0.0,0.0,56,0.00,,CLR,0.00,VWS V12.08,2013-05-27 23:50:00,
2013-05-27 19:51:00,63.1,47.2,30.09,NW,313,0.0,0.0,56,0.00,,CLR,0.00,VWS V12.08,2013-05-27 23:51:00,
2013-05-27 20:00:00,62.0,47.5,30.10,NW,313,0.0,0.0,59,0.00,,CLR,0.00,VWS V12.08,2013-05-28 00:00:00,
2013-05-27 20:01:00,62.0,47.5,30.10,NW,313,0.0,0.0,59,0.00,,CLR,0.00,VWS V12.08,2013-05-28 00:01:00,
2013-05-27 20:10:00,61.0,46.1,30.10,NW,313,0.0,0.0,58,0.00,,CLR,0.00,VWS V12.08,2013-05-28 00:10:00,
2013-05-27 20:11:00,61.0,46.1,30.10,NW,313,0.0,0.0,58,0.00,,CLR,0.00,VWS V12.08,2013-05-28 00:11:00,
2013-05-27 20:20:00,60.2,46.3,30.10,NW,313,0.0,0.0,60,0.00,,CLR,0.00,VWS V12.08,2013-05-28 00:20:00,
2013-05-27 20:21:00,60.2,46.3,30.10,NW,313,0.0,0.0,60,0.00,,CLR,0.00,VWS V12.08,2013-05-28 00:21:00,
2013-05-27 20:30:00,59.5,46.1,30.10,NW,313,0.0,0.0,61,0.00,,CLR,0.00,VWS V12.08,2013-05-28 00:30:00,
2013-05-27 20:31:00,59.5,46.1,30.10,NW,313,0.0,0.0,61,0.00,,CLR,0.00,VWS V12.08,2013-05-28 00:31:00,
2013-05-27 20:40:00,58.9,45.9,30.10,NW,313,0.0,0.0,62,0.00,,CLR,0.00,VWS V12.08,2013-05-28 00:40:00,
2013-05-27 20:41:00,58.9,45.9,30.10,NW,313,0.0,0.0,62,0.00,,CLR,0.00,VWS V12.08,2013-05-28 00:41:00,
2013-05-27 20:50:00,58.4,45.5,30.10,NW,313,0.0,0.0,62,0.00,,CLR,0.00,VWS V12.08,2013-05-28 00:50:00,
2013-05-27 20:51:00,58.4,45.5,30.10,NW,313,0.0,0.0,62,0.00,,CLR,0.00,VWS V12.08,2013-05-28 00:51:00,
2013-05-27 21:00:00,58.0,45.5,30.10,NW,313,0.0,0.0,63,0.00,,CLR,0.00,VWS V12.08,2013-05-28 01:00:00,
2013-05-27 21:01:00,58.0,45.5,30.10,NW,313,0.0,0.0,63,0.00,,CLR,0.00,VWS V12.08,2013-05-28 01:01:00,
2013-05-27 21:10:00,57.6,45.9,30.10,NW,313,0.0,0.0,65,0.00,,CLR,0.00,VWS V12.08,2013-05-28 01:10:00,
2013-05-27 21:11:00,57.6,45.9,30.10,NW,313,0.0,0.0,65,0.00,,CLR,0.00,VWS V12.08,2013-05-28 01:11:00,
2013-05-27 21:20:00,57.2,45.2,30.11,NW,313,0.0,0.0,64,0.00,,CLR,0.00,VWS V12.08,2013-05-28 01:20:00,
2013-05-27 21:21:00,57.2,45.2,30.11,NW,313,0.0,0.0,64,0.00,,CLR,0.00,VWS V12.08,2013-05-28 01:21:00,
2013-05-27 21:30:00,57.0,45.8,30.11,NW,313,0.0,0.0,66,0.00,,CLR,0.00,VWS V12.08,2013-05-28 01:30:00,
2013-05-27 21:31:00,57.0,45.8,30.11,NW,313,0.0,0.0,66,0.00,,CLR,0.00,VWS V12.08,2013-05-28 01:31:00,
2013-05-27 21:40:00,56.9,45.3,30.11,NW,313,0.0,0.0,65,0.00,,CLR,0.00,VWS V12.08,2013-05-28 01:40:00,
2013-05-27 21:41:00,56.9,45.3,30.11,NW,313,0.0,0.0,65,0.00,,CLR,0.00,VWS V12.08,2013-05-28 01:41:00,
2013-05-27 21:50:00,56.7,45.5,30.11,NW,313,0.0,0.0,66,0.00,,CLR,0.00,VWS V12.08,2013-05-28 01:50:00,
2013-05-27 21:51:00,56.7,45.5,30.11,NW,313,0.0,0.0,66,0.00,,CLR,0.00,VWS V12.08,2013-05-28 01:51:00,
2013-05-27 22:00:00,56.7,45.9,30.11,NW,313,0.0,0.0,67,0.00,,CLR,0.00,VWS V12.08,2013-05-28 02:00:00,
2013-05-27 22:01:00,56.7,45.9,30.11,NW,313,0.0,0.0,67,0.00,,CLR,0.00,VWS V12.08,2013-05-28 02:01:00,
2013-05-27 22:10:00,56.5,46.5,30.11,NW,313,0.0,0.0,69,0.00,,CLR,0.00,VWS V12.08,2013-05-28 02:10:00,
2013-05-27 22:11:00,56.5,46.5,30.11,NW,313,0.0,0.0,69,0.00,,CLR,0.00,VWS V12.08,2013-05-28 02:11:00,
2013-05-27 22:20:00,56.2,46.9,30.12,NW,313,0.0,0.0,71,0.00,,CLR,0.00,VWS V12.08,2013-05-28 02:20:00,
2013-05-27 22:21:00,56.2,46.9,30.12,NW,313,0.0,0.0,71,0.00,,CLR,0.00,VWS V12.08,2013-05-28 02:21:00,
2013-05-27 22:30:00,55.7,47.2,30.12,NW,313,0.0,0.0,73,0.00,,CLR,0.00,VWS V12.08,2013-05-28 02:30:00,
2013-05-27 22:31:00,55.7,47.2,30.12,NW,313,0.0,0.0,73,0.00,,CLR,0.00,VWS V12.08,2013-05-28 02:31:00,
2013-05-27 22:40:00,55.3,46.8,30.12,NW,313,0.0,0.0,73,0.00,,CLR,0.00,VWS V12.08,2013-05-28 02:40:00,
2013-05-27 22:41:00,55.3,46.8,30.12,NW,313,0.0,0.0,73,0.00,,CLR,0.00,VWS V12.08,2013-05-28 02:41:00,
2013-05-27 22:50:00,55.0,46.5,30.12,NW,313,0.0,0.0,73,0.00,,CLR,0.00,VWS V12.08,2013-05-28 02:50:00,
2013-05-27 22:51:00,55.0,46.5,30.12,NW,313,0.0,0.0,73,0.00,,CLR,0.00,VWS V12.08,2013-05-28 02:51:00,
2013-05-27 23:00:00,54.8,46.7,30.13,NW,313,0.0,0.0,74,0.00,,CLR,0.00,VWS V12.08,2013-05-28 03:00:00,
2013-05-27 23:01:00,54.8,46.7,30.13,NW,313,0.0,0.0,74,0.00,,CLR,0.00,VWS V12.08,2013-05-28 03:01:00,
2013-05-27 23:10:00,54.7,46.9,30.13,NW,313,0.0,0.0,75,0.00,,CLR,0.00,VWS V12.08,2013-05-28 03:10:00,
2013-05-27 23:11:00,54.7,46.9,30.13,NW,313,0.0,0.0,75,0.00,,CLR,0.00,VWS V12.08,2013-05-28 03:11:00,
2013-05-27 23:20:00,54.5,46.4,30.13,NW,313,0.0,0.0,74,0.00,,CLR,0.00,VWS V12.08,2013-05-28 03:20:00,
2013-05-27 23:21:00,54.5,46.4,30.13,NW,313,0.0,0.0,74,0.00,,CLR,0.00,VWS V12.08,2013-05-28 03:21:00,
2013-05-27 23:30:00,54.4,46.7,30.13,NW,313,0.0,0.0,75,0.00,,CLR,0.00,VWS V12.08,2013-05-28 03:30:00,
2013-05-27 23:31:00,54.4,46.7,30.13,NW,313,0.0,0.0,75,0.00,,CLR,0.00,VWS V12.08,2013-05-28 03:31:00,
2013-05-27 23:40:00,54.1,46.7,30.13,NW,313,0.0,0.0,76,0.00,,CLR,0.00,VWS V12.08,2013-05-28 03:40:00,
2013-05-27 23:41:00,54.1,46.7,30.13,NW,313,0.0,0.0,76,0.00,,CLR,0.00,VWS V12.08,2013-05-28 03:41:00,
2013-05-27 23:50:00,54.1,47.4,30.14,NW,313,0.0,0.0,78,0.00,,CLR,0.00,VWS V12.08,2013-05-28 03:50:00,
2013-05-27 23:51:00,54.1,47.4,30.14,NW,313,0.0,0.0,78,0.00,,CLR,0.00,VWS V12.08,2013-05-28 03:51:00,